| time (UTC) | temp C | wind direction | speed KPH | gust KPH | rain 1hr cm | rain 24hr cm | rain mn cm | humidity % | barometer mb |
| 20260508182204 | 22 | 139 | 1.6 | 4.8 | 0.00 | 0.00 | 0.00 | 26 | 1004.6 |
| 20260508181700 | 21 | 187 | 3.2 | 4.8 | 0.00 | 0.00 | 0.00 | 27 | 1004.7 |
| 20260508181157 | 21 | 166 | 3.2 | 4.8 | 0.00 | 0.00 | 0.00 | 24 | 1005.0 |
| 20260508180654 | 21 | 348 | 3.2 | 8.0 | 0.00 | 0.00 | 0.00 | 26 | 1004.8 |
| 20260508180151 | 21 | 98 | 6.4 | 11.3 | 0.00 | 0.00 | 0.00 | 25 | 1005.0 |
| 20260508175647 | 22 | 329 | 3.2 | 4.8 | 0.00 | 0.00 | 0.00 | 26 | 1005.2 |
| 20260508175144 | 21 | 232 | 3.2 | 4.8 | 0.00 | 0.00 | 0.00 | 27 | 1005.3 |
| 20260508174642 | 21 | 200 | 3.2 | 4.8 | 0.00 | 0.00 | 0.00 | 25 | 1005.4 |
| 20260508174138 | 21 | 153 | 4.8 | 8.0 | 0.00 | 0.00 | 0.00 | 26 | 1005.2 |
| 20260508173635 | 22 | 255 | 3.2 | 4.8 | 0.00 | 0.00 | 0.00 | 24 | 1005.7 |
| 20260508173131 | 21 | 171 | 1.6 | 3.2 | 0.00 | 0.00 | 0.00 | 28 | 1005.6 |
| 20260508172628 | 21 | 271 | 3.2 | 3.2 | 0.00 | 0.00 | 0.00 | 28 | 1005.8 |
| 20260508172124 | 21 | 187 | 1.6 | 3.2 | 0.00 | 0.00 | 0.00 | 29 | 1005.8 |
| 20260508171621 | 20 | 168 | 1.6 | 4.8 | 0.00 | 0.00 | 0.00 | 26 | 1005.9 |
| 20260508171118 | 20 | 175 | 3.2 | 4.8 | 0.00 | 0.00 | 0.00 | 29 | 1006.1 |
| 20260508170615 | 20 | 171 | 3.2 | 8.0 | 0.00 | 0.00 | 0.00 | 28 | 1006.2 |
| 20260508170112 | 20 | 257 | 3.2 | 4.8 | 0.00 | 0.00 | 0.00 | 28 | 1006.2 |
| 20260508165609 | 20 | 275 | 3.2 | 4.8 | 0.00 | 0.00 | 0.00 | 27 | 1006.2 |
| 20260508165106 | 20 | 143 | 3.2 | 4.8 | 0.00 | 0.00 | 0.00 | 29 | 1006.4 |
| 20260508164602 | 20 | 192 | 6.4 | 8.0 | 0.00 | 0.00 | 0.00 | 28 | 1006.4 |
| 20260508164059 | 19 | 183 | 4.8 | 8.0 | 0.00 | 0.00 | 0.00 | 30 | 1006.4 |
| 20260508163557 | 18 | 15 | 3.2 | 4.8 | 0.00 | 0.00 | 0.00 | 30 | 1006.5 |
| 20260508163053 | 18 | 322 | 17.7 | 33.8 | 0.00 | 0.00 | 0.00 | 29 | 1006.7 |
| 20260508162550 | 18 | 183 | 3.2 | 3.2 | 0.00 | 0.00 | 0.00 | 32 | 1006.6 |
| 20260508162048 | 18 | 178 | 1.6 | 3.2 | 0.00 | 0.00 | 0.00 | 32 | 1006.7 |
| 20260508161544 | 17 | 143 | 1.6 | 3.2 | 0.00 | 0.00 | 0.00 | 35 | 1006.8 |
| 20260508161042 | 17 | 172 | 3.2 | 4.8 | 0.00 | 0.00 | 0.00 | 34 | 1006.8 |
| 20260508160540 | 17 | 106 | 4.8 | 8.0 | 0.00 | 0.00 | 0.00 | 33 | 1007.0 |
| 20260508160037 | 16 | 33 | 6.4 | 14.5 | 0.00 | 0.00 | 0.00 | 34 | 1006.9 |
| 20260508155534 | 16 | 130 | 6.4 | 8.0 | 0.00 | 0.00 | 0.00 | 34 | 1007.1 |
| 20260508155031 | 16 | 194 | 6.4 | 8.0 | 0.00 | 0.00 | 0.00 | 35 | 1006.8 |
| 20260508154528 | 16 | 173 | 1.6 | 3.2 | 0.00 | 0.00 | 0.00 | 35 | 1007.1 |
| 20260508154025 | 16 | 184 | 6.4 | 8.0 | 0.00 | 0.00 | 0.00 | 35 | 1007.1 |
| 20260508153522 | 15 | 160 | 3.2 | 3.2 | 0.00 | 0.00 | 0.00 | 37 | 1007.3 |
| 20260508153018 | 15 | 160 | 0.0 | 3.2 | 0.00 | 0.00 | 0.00 | 38 | 1007.3 |
| 20260508152515 | 15 | 163 | 3.2 | 4.8 | 0.00 | 0.00 | 0.00 | 36 | 1007.3 |
| 20260508152010 | 15 | 181 | 6.4 | 14.5 | 0.00 | 0.00 | 0.00 | 36 | 1007.6 |
| 20260508151508 | 15 | 205 | 3.2 | 4.8 | 0.00 | 0.00 | 0.00 | 37 | 1007.3 |
| 20260508151004 | 15 | 219 | 3.2 | 4.8 | 0.00 | 0.00 | 0.00 | 37 | 1007.3 |
| 20260508150501 | 15 | 301 | 8.0 | 14.5 | 0.00 | 0.00 | 0.00 | 37 | 1007.5 |
| 20260508145956 | 15 | 183 | 4.8 | 4.8 | 0.00 | 0.00 | 0.00 | 36 | 1007.5 |
| 20260508145453 | 16 | 209 | 9.7 | 14.5 | 0.00 | 0.00 | 0.00 | 35 | 1007.6 |
| 20260508144950 | 15 | 201 | 3.2 | 3.2 | 0.00 | 0.00 | 0.00 | 37 | 1007.6 |
| 20260508144447 | 15 | 161 | 1.6 | 3.2 | 0.00 | 0.00 | 0.00 | 39 | 1007.4 |
| 20260508143945 | 14 | 160 | 3.2 | 4.8 | 0.00 | 0.00 | 0.00 | 39 | 1007.6 |
| 20260508143442 | 13 | 187 | 1.6 | 3.2 | 0.00 | 0.00 | 0.00 | 42 | 1007.7 |
| 20260508142938 | 13 | 291 | 3.2 | 4.8 | 0.00 | 0.00 | 0.00 | 40 | 1007.6 |
| 20260508142436 | 13 | 198 | 1.6 | 3.2 | 0.00 | 0.00 | 0.00 | 41 | 1007.7 |
| 20260508141932 | 13 | 205 | 0.0 | 3.2 | 0.00 | 0.00 | 0.00 | 41 | 1007.6 |
| 20260508141429 | 13 | 156 | 3.2 | 4.8 | 0.00 | 0.00 | 0.00 | 38 | 1007.7 |
| 20260508140927 | 12 | 176 | 3.2 | 3.2 | 0.00 | 0.00 | 0.00 | 39 | 1007.8 |
| 20260508140423 | 12 | 170 | 0.0 | 3.2 | 0.00 | 0.00 | 0.00 | 42 | 1007.6 |
| 20260508135919 | 12 | 117 | 1.6 | 4.8 | 0.00 | 0.00 | 0.00 | 40 | 1007.8 |
| 20260508135416 | 12 | 169 | 0.0 | 0.0 | 0.00 | 0.00 | 0.00 | 41 | 1008.0 |
| 20260508134912 | 12 | 209 | 3.2 | 11.3 | 0.00 | 0.00 | 0.00 | 40 | 1007.7 |
| 20260508134408 | 12 | 162 | 3.2 | 4.8 | 0.00 | 0.00 | 0.00 | 40 | 1007.8 |
| 20260508133906 | 12 | 153 | 8.0 | 14.5 | 0.00 | 0.00 | 0.00 | 40 | 1008.0 |
| 20260508133403 | 12 | 127 | 3.2 | 4.8 | 0.00 | 0.00 | 0.00 | 40 | 1008.1 |
| 20260508132900 | 12 | 177 | 0.0 | 3.2 | 0.00 | 0.00 | 0.00 | 40 | 1008.0 |
| 20260508132358 | 11 | 181 | 1.6 | 3.2 | 0.00 | 0.00 | 0.00 | 41 | 1008.1 |
| 20260508131854 | 11 | 161 | 0.0 | 0.0 | 0.00 | 0.00 | 0.00 | 42 | 1008.1 |
| 20260508131350 | 10 | 180 | 6.4 | 11.3 | 0.00 | 0.00 | 0.00 | 41 | 1007.9 |
| 20260508130847 | 10 | 191 | 3.2 | 8.0 | 0.00 | 0.00 | 0.00 | 42 | 1007.9 |
| 20260508130343 | 10 | 178 | 3.2 | 4.8 | 0.00 | 0.00 | 0.00 | 43 | 1008.0 |
| 20260508125840 | 10 | 179 | 1.6 | 3.2 | 0.00 | 0.00 | 0.00 | 44 | 1008.1 |
| 20260508125336 | 9 | 191 | 3.2 | 8.0 | 0.00 | 0.00 | 0.00 | 44 | 1008.0 |
| 20260508124834 | 8 | 166 | 0.0 | 0.0 | 0.00 | 0.00 | 0.00 | 45 | 1008.4 |
| 20260508124331 | 8 | 186 | 1.6 | 3.2 | 0.00 | 0.00 | 0.00 | 47 | 1008.1 |
| 20260508123829 | 8 | 208 | 3.2 | 3.2 | 0.00 | 0.00 | 0.00 | 48 | 1008.2 |
| 20260508123327 | 8 | 184 | 1.6 | 3.2 | 0.00 | 0.00 | 0.00 | 47 | 1008.2 |
| 20260508122823 | 8 | 349 | 3.2 | 4.8 | 0.00 | 0.00 | 0.00 | 47 | 1008.1 |
| 20260508122320 | 8 | 169 | 0.0 | 0.0 | 0.00 | 0.00 | 0.00 | 49 | 1008.2 |
| 20260508121818 | 7 | 170 | 0.0 | 0.0 | 0.00 | 0.00 | 0.00 | 49 | 1008.0 |
| 20260508121316 | 7 | 190 | 3.2 | 4.8 | 0.00 | 0.00 | 0.00 | 50 | 1008.0 |
| 20260508120813 | 7 | 176 | 1.6 | 3.2 | 0.00 | 0.00 | 0.00 | 51 | 1007.9 |
| 20260508120311 | 6 | 173 | 0.0 | 0.0 | 0.00 | 0.00 | 0.00 | 53 | 1008.0 |
| 20260508115808 | 6 | 222 | 3.2 | 4.8 | 0.00 | 0.00 | 0.00 | 53 | 1007.9 |
| 20260508115306 | 5 | 173 | 0.0 | 3.2 | 0.00 | 0.00 | 0.00 | 55 | 1008.0 |
| 20260508114802 | 5 | 166 | 0.0 | 0.0 | 0.00 | 0.00 | 0.00 | 57 | 1007.9 |
| 20260508114259 | 5 | 170 | 0.0 | 0.0 | 0.00 | 0.00 | 0.00 | 58 | 1008.0 |
| 20260508113755 | 4 | 164 | 0.0 | 0.0 | 0.00 | 0.00 | 0.00 | 60 | 1008.0 |
| 20260508113254 | 3 | 173 | 0.0 | 0.0 | 0.00 | 0.00 | 0.00 | 62 | 1007.9 |
| 20260508112750 | 3 | 164 | 0.0 | 0.0 | 0.00 | 0.00 | 0.00 | 64 | 1008.0 |
| 20260508112247 | 3 | 164 | 0.0 | 0.0 | 0.00 | 0.00 | 0.00 | 65 | 1008.1 |
| 20260508111743 | 3 | 162 | 0.0 | 0.0 | 0.00 | 0.00 | 0.00 | 66 | 1008.0 |
| 20260508111241 | 2 | 162 | 0.0 | 0.0 | 0.00 | 0.00 | 0.00 | 67 | 1007.9 |
| 20260508110738 | 2 | 164 | 0.0 | 0.0 | 0.00 | 0.00 | 0.00 | 69 | 1007.8 |
| 20260508110235 | 2 | 162 | 0.0 | 0.0 | 0.00 | 0.00 | 0.00 | 70 | 1008.0 |
| 20260508105730 | 2 | 162 | 0.0 | 0.0 | 0.00 | 0.00 | 0.00 | 71 | 1008.0 |
| 20260508105227 | 2 | 166 | 0.0 | 0.0 | 0.00 | 0.00 | 0.00 | 72 | 1007.7 |
| 20260508104724 | 2 | 164 | 0.0 | 0.0 | 0.00 | 0.00 | 0.00 | 72 | 1007.9 |
| 20260508104221 | 2 | 162 | 0.0 | 0.0 | 0.00 | 0.00 | 0.00 | 73 | 1007.8 |
| 20260508103719 | 2 | 165 | 0.0 | 0.0 | 0.00 | 0.00 | 0.00 | 73 | 1007.9 |
| 20260508103215 | 1 | 166 | 0.0 | 0.0 | 0.00 | 0.00 | 0.00 | 73 | 1007.9 |
| 20260508102712 | 1 | 166 | 0.0 | 0.0 | 0.00 | 0.00 | 0.00 | 73 | 1008.0 |
| 20260508102210 | 1 | 166 | 0.0 | 0.0 | 0.00 | 0.00 | 0.00 | 74 | 1007.8 |
| 20260508101707 | 1 | 166 | 0.0 | 0.0 | 0.00 | 0.00 | 0.00 | 74 | 1008.1 |
| 20260508101205 | 1 | 165 | 0.0 | 0.0 | 0.00 | 0.00 | 0.00 | 74 | 1008.0 |
| 20260508100702 | 1 | 165 | 0.0 | 0.0 | 0.00 | 0.00 | 0.00 | 74 | 1008.1 |
| 20260508100200 | 1 | 165 | 0.0 | 0.0 | 0.00 | 0.00 | 0.00 | 74 | 1008.0 |
| 20260508095656 | 1 | 165 | 0.0 | 0.0 | 0.00 | 0.00 | 0.00 | 73 | 1008.0 |
| 20260508095154 | 1 | 165 | 0.0 | 0.0 | 0.00 | 0.00 | 0.00 | 73 | 1008.0 |
| 20260508094650 | 1 | 165 | 0.0 | 0.0 | 0.00 | 0.00 | 0.00 | 72 | 1008.2 |
| 20260508094147 | 1 | 165 | 0.0 | 0.0 | 0.00 | 0.00 | 0.00 | 72 | 1008.2 |
| 20260508093644 | 1 | 167 | 0.0 | 0.0 | 0.00 | 0.00 | 0.00 | 71 | 1008.2 |
| 20260508093141 | 1 | 167 | 0.0 | 0.0 | 0.00 | 0.00 | 0.00 | 71 | 1008.2 |
| 20260508092639 | 2 | 167 | 0.0 | 0.0 | 0.00 | 0.00 | 0.00 | 70 | 1008.2 |
| 20260508092137 | 2 | 167 | 0.0 | 0.0 | 0.00 | 0.00 | 0.00 | 70 | 1008.0 |
| 20260508091634 | 2 | 167 | 0.0 | 0.0 | 0.00 | 0.00 | 0.00 | 69 | 1008.1 |
| 20260508091131 | 2 | 167 | 0.0 | 0.0 | 0.00 | 0.00 | 0.00 | 69 | 1008.3 |
| 20260508090629 | 2 | 167 | 0.0 | 0.0 | 0.00 | 0.00 | 0.00 | 68 | 1008.0 |
| 20260508090126 | 2 | 167 | 0.0 | 0.0 | 0.00 | 0.00 | 0.00 | 67 | 1008.2 |
| 20260508085622 | 2 | 167 | 0.0 | 0.0 | 0.00 | 0.00 | 0.00 | 67 | 1008.2 |
| 20260508085120 | 2 | 167 | 0.0 | 0.0 | 0.00 | 0.00 | 0.00 | 66 | 1008.2 |
| 20260508084616 | 2 | 167 | 0.0 | 0.0 | 0.00 | 0.00 | 0.00 | 66 | 1008.1 |
| 20260508084113 | 2 | 167 | 0.0 | 0.0 | 0.00 | 0.00 | 0.00 | 65 | 1008.2 |
| 20260508083611 | 2 | 167 | 0.0 | 0.0 | 0.00 | 0.00 | 0.00 | 65 | 1008.3 |
| 20260508083108 | 2 | 167 | 0.0 | 0.0 | 0.00 | 0.00 | 0.00 | 65 | 1008.3 |
| 20260508082603 | 2 | 167 | 0.0 | 0.0 | 0.00 | 0.00 | 0.00 | 65 | 1008.1 |
| 20260508082100 | 2 | 167 | 0.0 | 0.0 | 0.00 | 0.00 | 0.00 | 65 | 1008.3 |
| 20260508081558 | 2 | 167 | 0.0 | 0.0 | 0.00 | 0.00 | 0.00 | 66 | 1008.1 |
| 20260508081053 | 2 | 167 | 0.0 | 0.0 | 0.00 | 0.00 | 0.00 | 65 | 1008.3 |
| 20260508080551 | 2 | 167 | 0.0 | 0.0 | 0.00 | 0.00 | 0.00 | 66 | 1008.3 |
| 20260508080049 | 2 | 167 | 0.0 | 0.0 | 0.00 | 0.00 | 0.00 | 68 | 1008.3 |
| 20260508075545 | 2 | 167 | 0.0 | 0.0 | 0.00 | 0.00 | 0.00 | 67 | 1008.5 |
| 20260508075043 | 2 | 168 | 0.0 | 0.0 | 0.00 | 0.00 | 0.00 | 67 | 1008.4 |
| 20260508074540 | 2 | 169 | 0.0 | 0.0 | 0.00 | 0.00 | 0.00 | 68 | 1008.3 |
| 20260508074037 | 2 | 170 | 0.0 | 0.0 | 0.00 | 0.00 | 0.00 | 68 | 1008.5 |
| 20260508073534 | 2 | 170 | 0.0 | 0.0 | 0.00 | 0.00 | 0.00 | 67 | 1008.6 |
| 20260508073032 | 2 | 170 | 0.0 | 0.0 | 0.00 | 0.00 | 0.00 | 68 | 1008.6 |
| 20260508072527 | 2 | 170 | 0.0 | 0.0 | 0.00 | 0.00 | 0.00 | 68 | 1008.7 |
| 20260508072025 | 2 | 170 | 0.0 | 0.0 | 0.00 | 0.00 | 0.00 | 68 | 1008.7 |
| 20260508071523 | 2 | 170 | 0.0 | 0.0 | 0.00 | 0.00 | 0.00 | 68 | 1008.7 |
| 20260508071020 | 2 | 170 | 0.0 | 0.0 | 0.00 | 0.00 | 0.00 | 67 | 1008.6 |
| 20260508070518 | 3 | 170 | 0.0 | 0.0 | 0.00 | 0.00 | 0.00 | 68 | 1008.7 |
| 20260508070016 | 3 | 170 | 0.0 | 0.0 | 0.00 | 0.00 | 0.00 | 68 | 1008.8 |
| 20260508065513 | 3 | 170 | 0.0 | 0.0 | 0.00 | 0.00 | 0.00 | 68 | 1008.7 |
| 20260508065011 | 3 | 170 | 0.0 | 0.0 | 0.00 | 0.00 | 0.00 | 68 | 1008.9 |
| 20260508064509 | 3 | 170 | 0.0 | 0.0 | 0.00 | 0.00 | 0.00 | 68 | 1008.7 |
| 20260508064006 | 3 | 170 | 0.0 | 0.0 | 0.00 | 0.00 | 0.00 | 68 | 1008.8 |
| 20260508063503 | 3 | 170 | 0.0 | 0.0 | 0.00 | 0.00 | 0.00 | 68 | 1008.8 |
| 20260508063001 | 3 | 170 | 0.0 | 0.0 | 0.00 | 0.00 | 0.00 | 68 | 1008.8 |
| 20260508062459 | 3 | 170 | 0.0 | 0.0 | 0.00 | 0.00 | 0.00 | 68 | 1008.9 |
| 20260508061955 | 3 | 170 | 0.0 | 0.0 | 0.00 | 0.00 | 0.00 | 68 | 1009.0 |
| 20260508061453 | 3 | 170 | 0.0 | 0.0 | 0.00 | 0.00 | 0.00 | 67 | 1009.0 |
| 20260508060948 | 3 | 170 | 0.0 | 0.0 | 0.00 | 0.00 | 0.00 | 67 | 1009.4 |
| 20260508060446 | 3 | 170 | 0.0 | 0.0 | 0.00 | 0.00 | 0.00 | 67 | 1009.0 |
| 20260508055943 | 3 | 170 | 0.0 | 0.0 | 0.00 | 0.00 | 0.00 | 67 | 1009.2 |
| 20260508055439 | 3 | 170 | 0.0 | 0.0 | 0.00 | 0.00 | 0.00 | 67 | 1009.2 |
| 20260508054936 | 3 | 170 | 0.0 | 0.0 | 0.00 | 0.00 | 0.00 | 67 | 1009.2 |
| 20260508054433 | 3 | 170 | 0.0 | 0.0 | 0.00 | 0.00 | 0.00 | 67 | 1009.3 |
| 20260508053930 | 3 | 170 | 0.0 | 0.0 | 0.00 | 0.00 | 0.00 | 66 | 1009.0 |
| 20260508053427 | 3 | 170 | 0.0 | 0.0 | 0.00 | 0.00 | 0.00 | 66 | 1008.9 |
| 20260508052925 | 3 | 170 | 0.0 | 0.0 | 0.00 | 0.00 | 0.00 | 65 | 1009.4 |
| 20260508052422 | 4 | 170 | 0.0 | 0.0 | 0.00 | 0.00 | 0.00 | 65 | 1009.2 |
| 20260508051918 | 4 | 170 | 0.0 | 0.0 | 0.00 | 0.00 | 0.00 | 63 | 1009.4 |
| 20260508051414 | 4 | 170 | 0.0 | 0.0 | 0.00 | 0.00 | 0.00 | 64 | 1009.5 |
| 20260508050910 | 4 | 163 | 0.0 | 0.0 | 0.00 | 0.00 | 0.00 | 64 | 1009.6 |
| 20260508050407 | 4 | 166 | 0.0 | 0.0 | 0.00 | 0.00 | 0.00 | 64 | 1009.3 |
| 20260508045903 | 4 | 166 | 0.0 | 0.0 | 0.00 | 0.00 | 0.00 | 63 | 1009.6 |
| 20260508045401 | 4 | 166 | 0.0 | 0.0 | 0.00 | 0.00 | 0.00 | 63 | 1009.4 |
| 20260508044858 | 4 | 166 | 0.0 | 0.0 | 0.00 | 0.00 | 0.00 | 62 | 1009.4 |
| 20260508044355 | 4 | 166 | 0.0 | 0.0 | 0.00 | 0.00 | 0.00 | 63 | 1009.4 |
| 20260508043850 | 4 | 166 | 0.0 | 0.0 | 0.00 | 0.00 | 0.00 | 61 | 1009.6 |
| 20260508043348 | 5 | 166 | 0.0 | 0.0 | 0.00 | 0.00 | 0.00 | 61 | 1009.6 |
| 20260508042844 | 5 | 166 | 0.0 | 0.0 | 0.00 | 0.00 | 0.00 | 59 | 1009.7 |
| 20260508042342 | 5 | 166 | 0.0 | 0.0 | 0.00 | 0.00 | 0.00 | 61 | 1009.7 |
| 20260508041839 | 5 | 166 | 0.0 | 0.0 | 0.00 | 0.00 | 0.00 | 61 | 1009.7 |
| 20260508041335 | 5 | 166 | 0.0 | 0.0 | 0.00 | 0.00 | 0.00 | 60 | 1009.6 |
| 20260508040832 | 5 | 166 | 0.0 | 0.0 | 0.00 | 0.00 | 0.00 | 60 | 1009.5 |
| 20260508040329 | 5 | 166 | 0.0 | 0.0 | 0.00 | 0.00 | 0.00 | 61 | 1009.9 |
| 20260508035826 | 5 | 166 | 0.0 | 0.0 | 0.00 | 0.00 | 0.00 | 60 | 1009.8 |
| 20260508035324 | 5 | 166 | 0.0 | 0.0 | 0.00 | 0.00 | 0.00 | 59 | 1009.7 |
| 20260508034820 | 5 | 166 | 0.0 | 0.0 | 0.00 | 0.00 | 0.00 | 58 | 1009.9 |
| 20260508034318 | 5 | 166 | 0.0 | 0.0 | 0.00 | 0.00 | 0.00 | 58 | 1009.9 |
| 20260508033814 | 5 | 166 | 0.0 | 0.0 | 0.00 | 0.00 | 0.00 | 57 | 1010.0 |
| 20260508033313 | 5 | 166 | 0.0 | 0.0 | 0.00 | 0.00 | 0.00 | 57 | 1010.1 |
| 20260508032810 | 6 | 166 | 0.0 | 0.0 | 0.00 | 0.00 | 0.00 | 57 | 1009.9 |
| 20260508032307 | 6 | 166 | 0.0 | 0.0 | 0.00 | 0.00 | 0.00 | 56 | 1010.0 |
| 20260508031804 | 6 | 166 | 0.0 | 0.0 | 0.00 | 0.00 | 0.00 | 55 | 1010.0 |
| 20260508031300 | 6 | 166 | 0.0 | 0.0 | 0.00 | 0.00 | 0.00 | 54 | 1010.0 |
| 20260508030756 | 6 | 166 | 0.0 | 0.0 | 0.00 | 0.00 | 0.00 | 54 | 1010.0 |
| 20260508030254 | 6 | 166 | 0.0 | 0.0 | 0.00 | 0.00 | 0.00 | 53 | 1010.1 |
| 20260508025751 | 6 | 166 | 0.0 | 0.0 | 0.00 | 0.00 | 0.00 | 53 | 1009.9 |
| 20260508025248 | 6 | 166 | 0.0 | 0.0 | 0.00 | 0.00 | 0.00 | 52 | 1009.8 |
| 20260508024744 | 6 | 166 | 0.0 | 0.0 | 0.00 | 0.00 | 0.00 | 51 | 1009.8 |
| 20260508024241 | 7 | 166 | 0.0 | 0.0 | 0.00 | 0.00 | 0.00 | 51 | 1010.0 |
| 20260508023738 | 7 | 166 | 0.0 | 0.0 | 0.00 | 0.00 | 0.00 | 50 | 1010.0 |
| 20260508023235 | 7 | 166 | 0.0 | 0.0 | 0.00 | 0.00 | 0.00 | 50 | 1009.8 |
| 20260508022731 | 7 | 166 | 0.0 | 0.0 | 0.00 | 0.00 | 0.00 | 49 | 1009.9 |
| 20260508022227 | 7 | 166 | 0.0 | 0.0 | 0.00 | 0.00 | 0.00 | 48 | 1010.0 |
| 20260508021724 | 7 | 166 | 0.0 | 0.0 | 0.00 | 0.00 | 0.00 | 47 | 1009.8 |
| 20260508021219 | 8 | 166 | 0.0 | 0.0 | 0.00 | 0.00 | 0.00 | 46 | 1009.9 |
| 20260508020717 | 8 | 166 | 0.0 | 0.0 | 0.00 | 0.00 | 0.00 | 47 | 1009.9 |
| 20260508020214 | 8 | 166 | 0.0 | 0.0 | 0.00 | 0.00 | 0.00 | 44 | 1009.8 |
| 20260508015711 | 8 | 166 | 0.0 | 0.0 | 0.00 | 0.00 | 0.00 | 43 | 1009.6 |
| 20260508015208 | 9 | 166 | 0.0 | 0.0 | 0.00 | 0.00 | 0.00 | 42 | 1009.5 |
| 20260508014705 | 10 | 166 | 0.0 | 0.0 | 0.00 | 0.00 | 0.00 | 41 | 1009.6 |
| 20260508014201 | 10 | 166 | 0.0 | 0.0 | 0.00 | 0.00 | 0.00 | 40 | 1009.6 |
| 20260508013658 | 10 | 165 | 0.0 | 0.0 | 0.00 | 0.00 | 0.00 | 38 | 1009.5 |
| 20260508013154 | 10 | 164 | 0.0 | 0.0 | 0.00 | 0.00 | 0.00 | 38 | 1009.5 |
| 20260508012652 | 11 | 165 | 0.0 | 0.0 | 0.00 | 0.00 | 0.00 | 37 | 1009.4 |
| 20260508012149 | 11 | 166 | 0.0 | 0.0 | 0.00 | 0.00 | 0.00 | 36 | 1009.4 |
| 20260508011647 | 11 | 165 | 0.0 | 0.0 | 0.00 | 0.00 | 0.00 | 35 | 1009.3 |
| 20260508011144 | 12 | 167 | 0.0 | 0.0 | 0.00 | 0.00 | 0.00 | 34 | 1009.3 |
| 20260508010641 | 12 | 167 | 0.0 | 0.0 | 0.00 | 0.00 | 0.00 | 33 | 1009.5 |
| 20260508010139 | 12 | 179 | 0.0 | 0.0 | 0.00 | 0.00 | 0.00 | 32 | 1009.3 |
| 20260508005636 | 13 | 171 | 0.0 | 0.0 | 0.00 | 0.00 | 0.00 | 31 | 1009.4 |
| 20260508005132 | 13 | 181 | 0.0 | 0.0 | 0.00 | 0.00 | 0.00 | 31 | 1009.5 |
| 20260508004628 | 13 | 272 | 0.0 | 0.0 | 0.00 | 0.00 | 0.00 | 30 | 1009.4 |
| 20260508004125 | 14 | 173 | 1.6 | 3.2 | 0.00 | 0.00 | 0.00 | 29 | 1009.4 |
| 20260508003621 | 14 | 171 | 0.0 | 0.0 | 0.00 | 0.00 | 0.00 | 29 | 1009.3 |
| 20260508003119 | 14 | 174 | 0.0 | 3.2 | 0.00 | 0.00 | 0.00 | 29 | 1009.4 |
| 20260508002615 | 14 | 310 | 3.2 | 4.8 | 0.00 | 0.00 | 0.00 | 29 | 1009.6 |
| 20260508002113 | 14 | 203 | 0.0 | 0.0 | 0.00 | 0.00 | 0.00 | 29 | 1009.3 |
| 20260508001608 | 14 | 161 | 0.0 | 0.0 | 0.00 | 0.00 | 0.00 | 29 | 1009.5 |
| 20260508001104 | 13 | 146 | 0.0 | 3.2 | 0.00 | 0.00 | 0.00 | 29 | 1009.4 |
| 20260508000600 | 14 | 279 | 3.2 | 4.8 | 0.00 | 0.00 | 0.00 | 28 | 1009.4 |
| 20260508000058 | 14 | 22 | 3.2 | 4.8 | 0.00 | 0.00 | 0.00 | 29 | 1009.2 |
| 20260507235554 | 13 | 53 | 0.0 | 3.2 | 0.00 | 0.00 | 0.00 | 29 | 1009.4 |
| 20260507235052 | 14 | 331 | 3.2 | 8.0 | 0.00 | 0.00 | 0.00 | 28 | 1009.5 |
| 20260507234548 | 14 | 165 | 6.4 | 8.0 | 0.00 | 0.00 | 0.00 | 28 | 1009.6 |
| 20260507234044 | 14 | 319 | 3.2 | 4.8 | 0.00 | 0.00 | 0.00 | 28 | 1009.6 |
| 20260507233541 | 14 | 5 | 6.4 | 8.0 | 0.00 | 0.00 | 0.00 | 28 | 1009.8 |
| 20260507233040 | 14 | 249 | 0.0 | 3.2 | 0.00 | 0.00 | 0.00 | 30 | 1009.5 |
| 20260507232536 | 15 | 60 | 4.8 | 4.8 | 0.00 | 0.00 | 0.00 | 28 | 1009.5 |
| 20260507232033 | 15 | 165 | 1.6 | 3.2 | 0.00 | 0.00 | 0.00 | 27 | 1009.8 |
| 20260507231530 | 15 | 198 | 3.2 | 3.2 | 0.00 | 0.00 | 0.00 | 28 | 1009.8 |
| 20260507231027 | 15 | 150 | 0.0 | 3.2 | 0.00 | 0.00 | 0.00 | 27 | 1009.9 |
| 20260507230524 | 15 | 222 | 4.8 | 8.0 | 0.00 | 0.00 | 0.00 | 28 | 1010.0 |
| 20260507230020 | 15 | 193 | 0.0 | 3.2 | 0.00 | 0.00 | 0.00 | 27 | 1009.7 |
| 20260507225515 | 15 | 174 | 3.2 | 4.8 | 0.00 | 0.00 | 0.00 | 26 | 1010.0 |
| 20260507225012 | 15 | 180 | 0.0 | 3.2 | 0.00 | 0.00 | 0.00 | 27 | 1010.1 |
| 20260507224508 | 15 | 13 | 3.2 | 4.8 | 0.00 | 0.00 | 0.00 | 26 | 1009.9 |
| 20260507224004 | 15 | 296 | 9.7 | 14.5 | 0.00 | 0.00 | 0.00 | 25 | 1009.9 |
| 20260507223500 | 16 | 306 | 4.8 | 4.8 | 0.00 | 0.00 | 0.00 | 27 | 1010.0 |
| 20260507222958 | 15 | 201 | 1.6 | 3.2 | 0.00 | 0.00 | 0.00 | 28 | 1010.1 |
| 20260507222455 | 15 | 231 | 3.2 | 4.8 | 0.00 | 0.00 | 0.00 | 27 | 1010.0 |
| 20260507221951 | 16 | 37 | 9.7 | 11.3 | 0.00 | 0.00 | 0.00 | 26 | 1010.0 |
| 20260507221448 | 16 | 283 | 3.2 | 3.2 | 0.00 | 0.00 | 0.00 | 26 | 1010.1 |
| 20260507220944 | 15 | 262 | 3.2 | 4.8 | 0.00 | 0.00 | 0.00 | 29 | 1010.1 |
| 20260507220442 | 16 | 203 | 1.6 | 3.2 | 0.00 | 0.00 | 0.00 | 27 | 1010.1 |
| 20260507215938 | 16 | 276 | 6.4 | 8.0 | 0.00 | 0.00 | 0.00 | 27 | 1010.2 |
| 20260507215435 | 15 | 188 | 1.6 | 3.2 | 0.00 | 0.00 | 0.00 | 28 | 1010.1 |
| 20260507214932 | 15 | 279 | 4.8 | 4.8 | 0.00 | 0.00 | 0.00 | 27 | 1010.3 |
| 20260507214430 | 16 | 351 | 14.5 | 19.3 | 0.00 | 0.00 | 0.00 | 25 | 1010.1 |
| 20260507213925 | 16 | 236 | 3.2 | 4.8 | 0.00 | 0.00 | 0.00 | 26 | 1010.2 |
| 20260507213422 | 15 | 347 | 6.4 | 8.0 | 0.00 | 0.00 | 0.00 | 25 | 1010.3 |
| 20260507212919 | 15 | 116 | 4.8 | 8.0 | 0.00 | 0.00 | 0.00 | 27 | 1010.3 |
| 20260507212415 | 16 | 332 | 8.0 | 11.3 | 0.00 | 0.00 | 0.00 | 25 | 1010.5 |
| 20260507211912 | 15 | 214 | 6.4 | 8.0 | 0.00 | 0.00 | 0.00 | 28 | 1010.4 |
| 20260507211408 | 16 | 358 | 9.7 | 11.3 | 0.00 | 0.00 | 0.00 | 25 | 1010.6 |
| 20260507210905 | 15 | 219 | 4.8 | 4.8 | 0.00 | 0.00 | 0.00 | 27 | 1010.7 |
| 20260507210402 | 15 | 271 | 3.2 | 4.8 | 0.00 | 0.00 | 0.00 | 25 | 1010.5 |
| 20260507205858 | 15 | 105 | 3.2 | 4.8 | 0.00 | 0.00 | 0.00 | 27 | 1010.6 |
| 20260507205355 | 15 | 265 | 4.8 | 4.8 | 0.00 | 0.00 | 0.00 | 27 | 1010.7 |
| 20260507204852 | 15 | 338 | 6.4 | 16.1 | 0.00 | 0.00 | 0.00 | 28 | 1010.7 |
| 20260507204349 | 15 | 144 | 3.2 | 8.0 | 0.00 | 0.00 | 0.00 | 28 | 1010.7 |
| 20260507203847 | 15 | 229 | 6.4 | 8.0 | 0.00 | 0.00 | 0.00 | 27 | 1010.9 |
| 20260507203344 | 15 | 308 | 6.4 | 8.0 | 0.00 | 0.00 | 0.00 | 28 | 1011.0 |
| 20260507202840 | 15 | 293 | 12.9 | 16.1 | 0.00 | 0.00 | 0.00 | 26 | 1010.9 |
| 20260507202337 | 15 | 211 | 4.8 | 8.0 | 0.00 | 0.00 | 0.00 | 27 | 1010.8 |
| 20260507201832 | 15 | 145 | 1.6 | 3.2 | 0.00 | 0.00 | 0.00 | 28 | 1011.1 |
| 20260507201328 | 15 | 170 | 1.6 | 3.2 | 0.00 | 0.00 | 0.00 | 28 | 1011.0 |
| 20260507200825 | 14 | 283 | 3.2 | 3.2 | 0.00 | 0.00 | 0.00 | 26 | 1010.9 |
| 20260507200321 | 15 | 81 | 6.4 | 8.0 | 0.00 | 0.00 | 0.00 | 29 | 1011.1 |
| 20260507195817 | 15 | 185 | 3.2 | 4.8 | 0.00 | 0.00 | 0.00 | 29 | 1011.1 |
| 20260507195314 | 14 | 232 | 6.4 | 11.3 | 0.00 | 0.00 | 0.00 | 27 | 1011.4 |
| 20260507194812 | 15 | 167 | 1.6 | 3.2 | 0.00 | 0.00 | 0.00 | 27 | 1011.2 |
| 20260507194308 | 15 | 54 | 8.0 | 8.0 | 0.00 | 0.00 | 0.00 | 29 | 1011.2 |
| 20260507193804 | 15 | 206 | 3.2 | 4.8 | 0.00 | 0.00 | 0.00 | 30 | 1011.4 |
| 20260507193301 | 14 | 257 | 8.0 | 11.3 | 0.00 | 0.00 | 0.00 | 31 | 1011.4 |
| 20260507192757 | 14 | 29 | 4.8 | 8.0 | 0.00 | 0.00 | 0.00 | 29 | 1011.1 |
| 20260507192254 | 14 | 155 | 3.2 | 4.8 | 0.00 | 0.00 | 0.00 | 30 | 1011.4 |
| 20260507191750 | 13 | 294 | 3.2 | 4.8 | 0.00 | 0.00 | 0.00 | 32 | 1011.5 |
| 20260507191247 | 13 | 130 | 3.2 | 4.8 | 0.00 | 0.00 | 0.00 | 27 | 1011.4 |
| 20260507190744 | 14 | 165 | 3.2 | 8.0 | 0.00 | 0.00 | 0.00 | 29 | 1011.4 |
| 20260507190242 | 13 | 85 | 3.2 | 4.8 | 0.00 | 0.00 | 0.00 | 31 | 1011.4 |
| 20260507185741 | 13 | 299 | 4.8 | 4.8 | 0.00 | 0.00 | 0.00 | 33 | 1011.3 |
| 20260507185237 | 13 | 197 | 3.2 | 4.8 | 0.00 | 0.00 | 0.00 | 27 | 1011.3 |
| 20260507184735 | 13 | 357 | 3.2 | 4.8 | 0.00 | 0.00 | 0.00 | 33 | 1011.2 |
| 20260507184233 | 13 | 163 | 0.0 | 3.2 | 0.00 | 0.00 | 0.00 | 28 | 1011.6 |
| 20260507183729 | 13 | 100 | 8.0 | 14.5 | 0.00 | 0.00 | 0.00 | 28 | 1011.6 |
| 20260507183226 | 13 | 6 | 9.7 | 14.5 | 0.00 | 0.00 | 0.00 | 31 | 1011.7 |
| 20260507182723 | 13 | 174 | 0.0 | 0.0 | 0.00 | 0.00 | 0.00 | 31 | 1011.7 |